Rumahsbo

Jackpot

Texas Poker Multi Jackpot System

Kini Telah hadir Jackpot SUPER ROYAL FLUSH

Kini Telah hadir Jackpot 2000 (khusus table VIP keatas).

Ikutilah global jackpot yang tersedia di system kami, dengan system jackpot terbaru dan pertama di indonesia, anda dapat membeli jackpot dengan harga 100 rupiah saja dan menangkan hadiahnya hingga puluhan juta rupiah.

Jackpot bukanlah suatu keharusan untuk dibeli, namun kami memberikan suatu fitur tambahan untuk member tercinta dari www.linedomino.net.

Terdapat tiga pilihan harga jackpot yang bisa anda beli yaitu :100,500,1000 dan 2000(khusus table VIP Keatas) rupiah.

Hadiah dari Multi jackpot system www.linedomino.net

  1. full house x 10 harga jackpot yang anda beli.
      (contoh:anda membeli 1000 maka:1000 X10 = 10.000)
  2. four of kind x 250 harga jackpot yang anda beli
      (contoh:anda membeli 1000 maka:1000 X250 = 250.000)
  3. Straight flush x 1200
      (contoh:anda membeli 1000 maka:1000 X1200 = 1.200.000)
  4. Royal flush x 10000 harga jackpot yang anda beli
      (contoh:anda membeli 1000 maka:1000 X10000 = 10.000.000)
  5. SUPER ROYAL FLUSH x 30000 harga jackpot yang anda beli
      (contoh:anda membeli 1000 maka:1000 X30000 = 30.000.000)

Kondisi kartu

  1. full house adalah kondisi kartu dimana kartu anda dan kartu tengah dengan total 7 kartu bisa mendapatkan nilai 5 kartu dengan kombinasi 1 tris(three of kind) dan 1 pair, contoh 3 kartu 10 dan 2 kartu 5
  2. Four of kind adalah kondisi kartu dimana kartu anda dan kartu tengah dengan total 7 kartu bisa mendapatkan nilai 5 kartu dengan kombinasi 4 kartu yang sama jumlah dan 1 kartu apapun juga contoh anda mendapatkan 4 buah kartu angka 3 dan 1 kartu apapun.
  3. Staright flush adalah kondisi kartu dimana kartu anda dan kartu tengah dengan total 7 kartu bisa mendapatkan nilai 5 kartu dengan kombinasi seri / staright dengan kembang yang sama contoh : urutan kartu dari angka 5, 6, 7, 8 , 9 10 dengan kembang yg sama misalnya as hati
  4. Royal flush adalah kondisi kartu dimana kartu anda dan kartu tengah dengan total 7 kartu bisa mendapatkan nilai 5 kartu dengan kombinasi seri / staright dengan kembang yang sama tetapi kartu tersebut haruslah dimulai dari 10. contoh 10, Queen, Jack, King dan aces dengan kembang yang sama
  5. Super Royal flush adalah kondisi kartu dimana Kedua kartu anda digabung dengan 3 kartu pertama meja haruslah royal flush. contoh kartu anda 10,Queen kembang sama dan 3 kartu pertama meja adalah Jack, King dan aces dengan kembang yang sama

Demikian adalah penjelasan dari Multi Jackpot www.linedomino.net terima kasih dan selamat bermain salam hoki dari kami

Texas Poker Jackpot Winner

TOP SUPER ROYAL FLUSH
No.TanggalNamaPriceWin
121/06 18:28SAHAT33333Super Royal flush15,000,000
221/06 17:40SA737IKDAVSuper Royal flush30,000,000
321/06 17:31R4ISE_9999Super Royal flush15,000,000
421/06 16:59POKERV808Super Royal flush30,000,000
521/06 08:23TLJ18Super Royal flush6,000,000
TOP ROYAL FLUSH
No.TanggalNamaPriceWin
121/06 18:50HOKKY1017Royal flush2,000,000
221/06 18:46PD4DSILVIE69Royal flush5,000,000
321/06 18:23BLQ99Royal flush2,000,000
421/06 18:18BYUH999Royal flush2,000,000
521/06 18:08DEROYALE99Royal flush10,000,000
TOP STRAIGHT FLUSH
No.TanggalNamaPriceWin
121/06 19:06TOROK88Straight Flush2,400,000
221/06 19:01FIGHTER26Straight Flush600,000
321/06 18:57VALKASS78Straight Flush600,000
421/06 18:56TANJURA35Straight Flush600,000
521/06 18:44FARAF88Straight Flush1,200,000
LATEST JACKPOT
No.TanggalNamaPriceWin
121/06 19:06ANGKATIOFull House2,000
221/06 19:06C3D91476Full House2,000
321/06 19:06RIRI075Full House5,000
421/06 19:06K0Y0K4S3PFull House2,000
521/06 19:06TOROK88Straight Flush2,400,000
621/06 19:06GOP4Full House20,000
721/06 19:06QUEENNAD77Full House5,000
821/06 19:06ZAMIR125Full House5,000
921/06 19:06KELAY7Full House2,000
1021/06 19:06BONTO55Full House5,000
1121/06 19:06PHILLLIVEYFull House2,000
1221/06 19:06SOMUAFull House2,000
1321/06 19:06RMZ1THEMBBFull House2,000
1421/06 19:06MAS_BRO9Full House20,000
1521/06 19:06ZAHRA2807Full House5,000
1621/06 19:06FUNGZHAOFull House10,000
1721/06 19:06DR_PRO4824Full House1,000
1821/06 19:06JAKA0638Full House1,000
1921/06 19:06INACANT1KFull House5,000
2021/06 19:06GIGGS86Full House5,000
2121/06 19:06FUNNY168Full House1,000
2221/06 19:06OLMAXFull House2,000
2321/06 19:06BSLIMA777Full House1,000
2421/06 19:06LAGOLAGOFull House2,000
2521/06 19:06BRIPKA11Full House500
2621/06 19:06NUKI9000Full House1,000
2721/06 19:06PUTRI640Full House5,000
2821/06 19:06GJYHCYSYD4Full House2,000
2921/06 19:06NOVIKAPTENFull House2,000
3021/06 19:06RRR39Full House1,000
3121/06 19:06THEVU1992Full House2,000
3221/06 19:06KOMENGCHZFull House20,000
3321/06 19:06E0FCD9EEFull House5,000
3421/06 19:06NASKLENG05Full House2,000
3521/06 19:06HASBI7Full House1,000
3621/06 19:06ASKKK01Full House2,000
3721/06 19:06OCILVANGE2Full House1,000
3821/06 19:06T5QRWHR75YFull House2,000
3921/06 19:06CERUTU21Full House2,000
4021/06 19:05PUNGKUR02Full House2,000
4121/06 19:05UNTUKUNTUKFull House500
4221/06 19:05YANTOTENGIFour Of A Kind25,000
4321/06 19:05KOBRAKU17Full House2,000
4421/06 19:05QEIZAR02Full House5,000
4521/06 19:05DEFBC66CFull House1,000
4621/06 19:05ULO_SOWOFull House2,000
4721/06 19:05AV3NG3R89Full House2,000
4821/06 19:05D37AFF28Full House2,000
4921/06 19:05KAISA1212Full House2,000
5021/06 19:05E35712D2Full House5,000

Domino Multi Jackpot System

Ikutilah global jackpot yang tersedia di system kami, dengan system jackpot terbaru dan pertama di indonesia, anda dapat membeli jackpot dengan harga 100 rupiah saja dan menangkan hadiahnya hingga puluhan juta rupiah.

Jackpot bukanlah suatu keharusan untuk dibeli, namun kami memberikan suatu fitur tambahan untuk member tercinta dari www.linedomino.net.

Terdapat tiga pilihan harga jackpot yang bisa anda beli yaitu :100,500 dan 1000 rupiah.

Hadiah dari Multi jackpot system www.linedomino.net

  1. Murni Kecil x 50 harga jackpot yang anda beli.
      (contoh:anda membeli 1000 maka:1000 X 50 = 50.000)
  2. Murni Besar x 50 harga jackpot yang anda beli
      (contoh:anda membeli 1000 maka:1000 X 50 = 50.000)
  3. BALAK x 100 harga jackpot yang anda beli
      (contoh:anda membeli 1000 maka:1000 X 100 = 100.000)
  4. ENAM DEWA x 6666 harga jackpot yang anda beli
      (contoh:anda membeli 1000 maka:1000 X 6666 = 6.666.000)

Demikian adalah penjelasan dari Multi Jackpot www.linedomino.net terima kasih dan selamat bermain salam hoki dari kami

Domino Jackpot Winner

TOP ENAM DEWA
No.TanggalNamaPriceWin
121/06 15:29DIKI2001murni enam3,333,000
221/06 14:49DDMIT999murni enam6,666,000
321/06 14:25SJPOKER035murni enam666,600
421/06 14:16AJS77murni enam666,600
521/06 13:51CE61BEA2murni enam3,333,000
TOP BALAK
No.TanggalNamaPriceWin
121/06 19:05SARIELbalak50,000
221/06 19:05HACKERQbalak100,000
321/06 19:05AYA_MANGbalak100,000
421/06 19:04JAMUR43balak10,000
521/06 18:58HERI77ANDAbalak100,000
LATEST JACKPOT
No.TanggalNamaPriceWin
121/06 19:06UNYILZAmurni besar50,000
221/06 19:05HABUGE88murni kecil5,000
321/06 19:05SARIELbalak50,000
421/06 19:05HACKERQbalak100,000
521/06 19:05DOLOP447murni besar5,000
621/06 19:05AYA_MANGbalak100,000
721/06 19:04MAMASUSU2murni kecil5,000
821/06 19:04ASPIRE09murni kecil25,000
921/06 19:04JAMUR43balak10,000
1021/06 19:02KULTUUmurni kecil50,000
1121/06 19:02EDG62XFES6murni kecil25,000
1221/06 19:02SJPOKER035murni besar5,000
1321/06 19:01ERIS95lucky9910,000
1421/06 19:00UKI098murni besar25,000
1521/06 18:59HIUWHITEmurni besar5,000
1621/06 18:59VENITA94murni kecil25,000
1721/06 18:59SJPOKER035murni besar5,000
1821/06 18:59LAZADAQ1murni kecil50,000
1921/06 18:59AMMOmurni besar25,000
2021/06 18:59BXU4HETHYImurni kecil5,000
2121/06 18:59DOBBLE37murni kecil50,000
2221/06 18:58HERI77ANDAbalak100,000
2321/06 18:58SSAALLAbalak50,000
2421/06 18:58UTAMI2murni kecil25,000
2521/06 18:57ASRINAL1murni kecil5,000
2621/06 18:57IRWANNmurni kecil50,000
2721/06 18:57MAESTRO4AAmurni besar5,000
2821/06 18:57SHOP75murni kecil50,000
2921/06 18:56LINA0886murni kecil25,000
3021/06 18:56MV479318balak100,000
3121/06 18:56UTAMI2murni kecil50,000
3221/06 18:56SELLONEmurni kecil50,000
3321/06 18:55MAMASUSU2murni kecil5,000
3421/06 18:55VALDO017murni besar50,000
3521/06 18:55MAYZADAmurni besar50,000
3621/06 18:55LOVE_MUmurni besar50,000
3721/06 18:54EMAD89murni besar25,000
3821/06 18:53KAKULIH98murni besar25,000
3921/06 18:53SE7ENSKYmurni kecil50,000
4021/06 18:53TERCECERbalak50,000
4121/06 18:52THENGOL2murni besar50,000
4221/06 18:52HIUWHITEbalak10,000
4321/06 18:52FIXTORIA99murni kecil50,000
4421/06 18:51BLOKWmurni kecil50,000
4521/06 18:50BOCEX21balak10,000
4621/06 18:50KECUUmurni besar50,000
4721/06 18:49T0007117murni besar5,000
4821/06 18:49LINDAGmurni kecil50,000
4921/06 18:48GOPE113murni kecil5,000
5021/06 18:48NYASAR01murni besar50,000

Ceme Multi Jackpot System

Jackpot dilihat dari gabungan kartu pemain dengan kartu bandar. Bandar harus membeli jackpot sebanyak jumlah player yang sedang duduk. Sebagai contoh bila terdapat 3 pemain duduk bermain, dan bandar memutuskan untuk membeli jackpot Rp 1.000, maka pada periode tersebut bandar akan membeli jackpot sebanyak 3xRp1.000 = Rp3.000.

Jackpot bukanlah suatu keharusan untuk dibeli, namun kami memberikan suatu fitur tambahan untuk member tercinta dari www.linedomino.net.

Terdapat tiga pilihan harga jackpot yang bisa anda beli yaitu :100,500 dan 1000 rupiah.

Hadiah dari Multi jackpot system www.linedomino.net

  1. Murni Kecil x 50 harga jackpot yang anda beli.
      (contoh:anda membeli 1000 maka:1000 X 50 = 50.000)
  2. Murni Besar x 50 harga jackpot yang anda beli
      (contoh:anda membeli 1000 maka:1000 X 50 = 50.000)
  3. BALAK x 200 harga jackpot yang anda beli
      (contoh:anda membeli 1000 maka:1000 X 200 = 200.000)
  4. ENAM DEWA x 6666 harga jackpot yang anda beli
      (contoh:anda membeli 1000 maka:1000 X 6666 = 6.666.000)

Demikian adalah penjelasan dari Multi Jackpot www.linedomino.net terima kasih dan selamat bermain salam hoki dari kami

Ceme Jackpot Winner

TOP ENAM DEWA
No.TanggalNamaPriceWin
121/06 19:04ULANRIFDO8murni enam6,666,000
221/06 19:00ZHIKOSSmurni enam6,666,000
321/06 19:00SUHANDII88murni enam6,666,000
421/06 18:49ARIS21Bmurni enam666,600
521/06 18:25HENKY100murni enam6,666,000
TOP BALAK
No.TanggalNamaPriceWin
121/06 19:06EBLEH45balak200,000
221/06 19:06D3W4T423balak200,000
321/06 19:04ARIS21Bbalak20,000
421/06 19:04MANGAPBLEKbalak200,000
521/06 19:04CF08628Dbalak200,000
LATEST JACKPOT
No.TanggalNamaPriceWin
121/06 19:06ARIS21Bmurni kecil5,000
221/06 19:06EBLEH45balak200,000
321/06 19:06D3W4T423balak200,000
421/06 19:06CUCUOLENG4murni kecil5,000
521/06 19:06SUDAN87murni kecil25,000
621/06 19:06ZQWYH3PDJ7murni kecil25,000
721/06 19:06GARUT06murni kecil50,000
821/06 19:05ZIIZII2121murni besar50,000
921/06 19:05JAJANAN333murni besar50,000
1021/06 19:05BARAYA77murni besar25,000
1121/06 19:05DACENG99murni kecil50,000
1221/06 19:05HADIDTYAmurni kecil50,000
1321/06 19:05SAMIENSmurni kecil50,000
1421/06 19:05M5FMTVXQCFmurni kecil50,000
1521/06 19:05CF08628Dmurni kecil50,000
1621/06 19:05ALVARO000murni kecil25,000
1721/06 19:05XFILES88murni kecil50,000
1821/06 19:05ULANRIFDO8murni kecil50,000
1921/06 19:05X1NOZmurni besar50,000
2021/06 19:05XIO_9murni kecil5,000
2121/06 19:05AMBONCBRmurni kecil50,000
2221/06 19:05XIO_9murni kecil5,000
2321/06 19:04SUKSESVROmurni kecil50,000
2421/06 19:04ARIS21Bbalak20,000
2521/06 19:04MANGAPBLEKbalak200,000
2621/06 19:04VICTORIA26murni kecil50,000
2721/06 19:04KANGGOJEKmurni besar25,000
2821/06 19:04XFILES88murni kecil50,000
2921/06 19:04SUGARA888murni kecil25,000
3021/06 19:04D01458A8murni besar50,000
3121/06 19:04ULANRIFDO8murni enam6,666,000
3221/06 19:04PT4DGILANGmurni kecil50,000
3321/06 19:04GARBIS999murni kecil50,000
3421/06 19:04AGELUCKYmurni besar25,000
3521/06 19:04NUR_HAYA55murni kecil25,000
3621/06 19:04CF08628Dbalak200,000
3721/06 19:04RUDY120murni kecil50,000
3821/06 19:04ROLAS3murni kecil25,000
3921/06 19:04ZANSAYYmurni kecil50,000
4021/06 19:03IDK893411murni besar25,000
4121/06 19:03BETTY0296murni besar5,000
4221/06 19:03BONARIO156murni kecil50,000
4321/06 19:03DATAWmurni kecil50,000
4421/06 19:03HERMA258murni kecil50,000
4521/06 19:03R87QB1AXVXbalak100,000
4621/06 19:03VALK299balak200,000
4721/06 19:03PANAD0LLmurni besar50,000
4821/06 19:03KIIKIIEW91balak200,000
4921/06 19:03CASUDINmurni kecil50,000
5021/06 19:03BRIBISA66murni kecil50,000